Location: Antichan
(42.9728°N, 0.6667°E)
Time: 14:27:14
(UTC+00:00)

Meteor 1-27 Rocket - Pass Details

Date: 15 August 2020
Orbit: 831 x 909 km, 81.3° (Epoch: 24 September)

Event Time Altitude Azimuth Distance (km) Brightness Sun altitude
Rises 19:40:18 0° 351° (N) 3,542 7.5 -7.8°
Reaches altitude 10° 19:42:47 10° 353° (N) 2,601 6.8 -8.2°
Maximum altitude 19:48:44 76° 79° (E) 938 3.8 -9.1°
Drops below altitude 10° 19:54:39 10° 166° (SSE) 2,579 5.8 -10.1°
Sets 19:57:06 0° 167° (SSE) 3,510 6.5 -10.5°
Enters shadow 19:57:07 - 167° (SSE) 3,521 6.5 -10.5°
